Location: Équennes
(49.7375°N, 1.9622°E)
Time: 07:44:38
(UTC+00:00)

SKYMED 2 - Visible Passes

Search period start: 24 September 2023 00:00
Search period end: 04 October 2023 00:00
Orbit: 621 x 623 km, 97.9° (Epoch: 23 September)

Date Brightness Start Highest point End Pass type
(mag) Time Alt. Az. Time Alt. Az. Time Alt. Az.
24 Sep 5.5 04:08:52 10° SE 04:12:44 32° ENE 04:16:37 10° N visible
24 Sep 5.7 19:03:51 10° N 19:07:38 30° WNW 19:11:24 10° SW visible
25 Sep 4.8 04:26:29 10° SE 04:30:38 47° ENE 04:34:49 10° N visible
25 Sep 6.3 19:22:11 10° NNW 19:25:29 21° WNW 19:28:46 10° WSW visible
26 Sep 7.1 03:12:15 10° ENE 03:13:13 11° NE 03:14:11 10° NE visible
26 Sep 4.0 04:44:16 10° SSE 04:48:34 70° ENE 04:52:55 10° N visible
26 Sep 6.8 19:40:42 10° NNW 19:43:16 15° WNW 19:45:49 10° W visible
27 Sep 6.8 03:28:30 10° E 03:30:57 15° ENE 03:33:24 10° NNE visible
27 Sep 3.5 05:02:11 10° S 05:06:32 80° WSW 05:10:55 10° NNW visible
27 Sep 3.9 18:21:15 10° N 18:25:36 73° WNW 18:29:55 10° SSW visible
27 Sep 7.1 19:59:45 10° NW 20:00:59 11° NW 20:02:13 10° WNW visible
28 Sep 6.3 03:45:29 10° ESE 03:48:43 21° ENE 03:51:56 10° NNE visible
28 Sep 4.7 18:39:18 10° N 18:43:31 49° WNW 18:47:41 10° SW visible
29 Sep 5.7 04:02:46 10° SE 04:06:30 29° ENE 04:10:14 10° N visible
29 Sep 5.4 18:57:26 10° N 19:01:21 34° WNW 19:05:15 10° SW visible
30 Sep 5.0 04:20:15 10° SE 04:24:19 41° ENE 04:28:24 10° N visible
30 Sep 6.1 19:15:39 10° N 19:19:08 24° WNW 19:22:37 10° WSW visible
01 Oct 4.2 04:37:53 10° SSE 04:42:09 60° ENE 04:46:27 10° N visible
01 Oct 3.6 17:56:50 10° NNE 18:01:11 66° ESE 18:05:29 10° S visible
01 Oct 6.6 19:34:00 10° NNW 19:36:52 17° WNW 19:39:43 10° W visible
02 Oct 6.9 03:22:28 10° E 03:24:32 13° ENE 03:26:36 10° NNE visible
02 Oct 3.6 04:55:42 10° SSE 05:00:02 89° ENE 05:04:25 10° NNW visible
02 Oct 3.7 18:14:42 10° NNE 18:19:05 84° WNW 18:23:25 10° SSW visible
02 Oct 6.9 19:52:41 10° NNW 19:54:32 13° NW 19:56:23 10° W visible
03 Oct 6.5 03:39:14 10° ESE 03:42:13 18° ENE 03:45:12 10° NNE visible
03 Oct 3.6 05:13:39 10° S 05:17:57 61° WSW 05:22:16 10° NNW visible
03 Oct 4.3 18:32:39 10° N 18:36:56 56° WNW 18:41:10 10° SSW visible
